Bratislava, Slovakia

5:58 AM CET on January 19, 2018 (GMT +0100)
M.R. Stefanik

Weather History for LZIB - September, 2013

Change the Weather History Date:

Saturday, September 7, 2013

  Actual Average Record
Temperature  
Mean Temperature 66 °F -  
Max Temperature 78 °F 65 °F 84 °F (2008)
Min Temperature 54 °F 48 °F 44 °F (1996)
Cooling Degree Days 1    
Growing Degree Days 16 (Base 50)    
Moisture  
Dew Point 50 °F    
Average Humidity 58    
Maximum Humidity 88    
Minimum Humidity 24    
Precipitation  
Precipitation 0.00 in - - ()
Sea Level Pressure  
Sea Level Pressure 30.10 in    
Wind  
Wind Speed 5 mph ()    
Max Wind Speed 9 mph    
Max Gust Speed -    
Visibility 15.8 miles    
Events      
Averages and records for this station are not official NWS values.
T = Trace of Precipitation, MM = Missing Value Source: Averaged Metar Reports

Daily Weather History Graph

Daily Weather History Graph

Search for Another Location

Airport or City:

Trip Planner

Search our weather history database for the weather conditions in past years. The results will help you decide how hot, cold, wet, or windy it might be!

Date:

Astronomy

Sep. 07, 2013 Rise Set
Actual Time 6:17 AM CEST 7:20 PM CEST
Civil Twilight 5:45 AM CEST 7:52 PM CEST
Nautical Twilight 5:06 AM CEST 8:30 PM CEST
Astronomical Twilight 4:26 AM CEST 9:10 PM CEST
Moon 8:26 AM CEST (9/7) 7:53 PM CEST (9/7)
Length of Visible Light 14h 06m
Length of Day
13h 03m
Waxing Crescent, 4% of the Moon is Illuminated
Sep 7
Waxing Crescent
Sep 12
First Quarter
Sep 19
Full
Sep 27
Last Quarter
Oct 5
New

Hourly Weather History & Observations

Time (CEST) Temp. Dew Point Humidity Pressure Visibility Wind Dir Wind Speed Gust Speed Precip Events Conditions
12:00 AM 58 °F 53 °F 76% 30.05 in 16 mi NE 4.5 mph - -   Scattered Clouds
12:00 AM 59.0 °F 51.8 °F 77% 30.04 in - NE 3.5 mph - N/A   Clear
12:30 AM 57.2 °F 51.8 °F 82% 30.04 in - NE 4.6 mph - N/A   Clear
1:00 AM 58 °F 52 °F 73% 30.06 in 16 mi 2.2 mph - -   Scattered Clouds
1:00 AM 57.2 °F 51.8 °F 82% 30.04 in - Variable 3.5 mph - N/A   Clear
1:30 AM 57.2 °F 51.8 °F 82% 30.06 in - NNE 3.5 mph - N/A   Clear
2:00 AM 56 °F 51 °F 77% 30.07 in 16 mi 2.2 mph - -   Clear
2:00 AM 57.2 °F 50.0 °F 77% 30.06 in - NNE 3.5 mph - N/A   Clear
2:30 AM 55.4 °F 50.0 °F 82% 30.06 in - ENE 6.9 mph - N/A   Clear
3:00 AM 55 °F 51 °F 80% 30.08 in 16 mi NE 4.5 mph - -  
3:00 AM 55.4 °F 50.0 °F 82% 30.06 in - NE 3.5 mph - N/A   Clear
3:30 AM 55.4 °F 51.8 °F 88% 30.06 in - NE 4.6 mph - N/A   Clear
4:00 AM 55 °F 51 °F 81% 30.08 in 16 mi NNE 6.7 mph - -  
4:00 AM 55.4 °F 51.8 °F 88% 30.06 in - NE 6.9 mph - N/A   Clear
4:30 AM 55.4 °F 50.0 °F 82% 30.06 in - NE 6.9 mph - N/A   Clear
5:00 AM 56 °F 50 °F 75% 30.09 in 16 mi NNE 6.7 mph - -  
5:00 AM 55.4 °F 50.0 °F 82% 30.06 in - NE 6.9 mph - N/A   Clear
5:30 AM 55.4 °F 50.0 °F 82% 30.09 in - NE 9.2 mph - N/A   Clear
6:00 AM 55.4 °F 50.0 °F 82% 30.09 in - NE 8.1 mph - N/A   Clear
6:30 AM 55.4 °F 48.2 °F 77% 30.09 in - NE 6.9 mph - N/A   Clear
7:00 AM 56 °F 49 °F 69% 30.13 in 19 mi NE 4.5 mph - -  
7:00 AM 55.4 °F 48.2 °F 77% 30.12 in - NE 4.6 mph - N/A   Clear
7:30 AM 59.0 °F 48.2 °F 67% 30.12 in - NE 8.1 mph - N/A   Clear
8:00 AM 60 °F 49 °F 58% 30.14 in 19 mi ENE 6.7 mph - -  
8:00 AM 59.0 °F 48.2 °F 67% 30.12 in - ENE 6.9 mph - N/A   Clear
8:30 AM 60.8 °F 48.2 °F 63% 30.12 in - ENE 6.9 mph - N/A   Clear
9:00 AM 62.6 °F 48.2 °F 59% 30.12 in - East 6.9 mph - N/A   Clear
9:30 AM 64.4 °F 48.2 °F 56% 30.15 in - East 6.9 mph - N/A   Clear
10:00 AM 66 °F 47 °F 39% 30.15 in 22 mi East 6.7 mph - -  
10:00 AM 66.2 °F 46.4 °F 49% 30.15 in - East 6.9 mph - N/A   Clear
10:30 AM 68.0 °F 46.4 °F 46% 30.15 in - East 6.9 mph - N/A   Clear
11:00 AM 70 °F 47 °F 33% 30.14 in 22 mi East 6.7 mph - -  
11:00 AM 69.8 °F 46.4 °F 43% 30.15 in - East 8.1 mph - N/A   Clear
11:30 AM 71.6 °F 46.4 °F 41% 30.12 in - ESE 8.1 mph - N/A   Clear
12:00 PM 72 °F 47 °F 30% 30.13 in 22 mi SE 6.7 mph - -  
12:00 PM 73.4 °F 48.2 °F 41% 30.12 in - SE 6.9 mph - N/A   Clear
12:30 PM 73.4 °F 46.4 °F 38% 30.12 in - SE 6.9 mph - N/A   Clear
1:00 PM 75 °F 50 °F 31% 30.12 in 22 mi South 6.7 mph - -  
1:00 PM 75.2 °F 48.2 °F 38% 30.12 in - South 6.9 mph - N/A   Clear
1:30 PM 77.0 °F 48.2 °F 36% 30.12 in - Variable 5.8 mph - N/A   Clear
2:00 PM 76 °F 49 °F 28% 30.12 in 22 mi SSE 6.7 mph - -   Scattered Clouds
2:00 PM 77.0 °F 48.2 °F 36% 30.12 in - Variable 4.6 mph - N/A   Clear
2:30 PM 78.8 °F 50.0 °F 36% 30.12 in - SSE 5.8 mph - N/A   Clear
3:00 PM 77 °F 47 °F 24% 30.10 in 22 mi ESE 6.7 mph - -   Scattered Clouds
3:00 PM 78.8 °F 50.0 °F 36% 30.09 in - SSE 6.9 mph - N/A   Clear
3:30 PM 78.8 °F 48.2 °F 34% 30.09 in - SE 6.9 mph - N/A   Clear
4:00 PM 78 °F 49 °F 26% 30.10 in 22 mi SE 6.7 mph - -   Scattered Clouds
4:00 PM 78.8 °F 50.0 °F 36% 30.09 in - SE 6.9 mph - N/A   Clear
4:30 PM 78.8 °F 50.0 °F 36% 30.09 in - ESE 5.8 mph - N/A   Clear
5:00 PM 78 °F 48 °F 25% 30.09 in 22 mi ESE 6.7 mph - -  
5:00 PM 78.8 °F 50.0 °F 36% 30.09 in - ESE 6.9 mph - N/A   Clear
5:30 PM 78.8 °F 48.2 °F 34% 30.09 in - SE 5.8 mph - N/A   Clear
6:00 PM 77 °F 52 °F 31% 30.09 in 22 mi SE 6.7 mph - -  
6:00 PM 77.0 °F 50.0 °F 39% 30.09 in - SE 6.9 mph - N/A   Clear
6:30 PM 77.0 °F 51.8 °F 41% 30.09 in - SE 5.8 mph - N/A   Clear
7:00 PM 74 °F 54 °F 38% 30.09 in 22 mi ESE 4.5 mph - -  
7:00 PM 75.2 °F 53.6 °F 47% 30.09 in - ESE 5.8 mph - N/A   Clear
7:30 PM 69.8 °F 55.4 °F 60% 30.09 in - East 4.6 mph - N/A   Clear
8:00 PM 67 °F 56 °F 58% 30.12 in 16 mi East 4.5 mph - -  
8:00 PM 68.0 °F 55.4 °F 64% 30.12 in - East 5.8 mph - N/A   Clear
8:30 PM 66.2 °F 55.4 °F 68% 30.12 in - NE 6.9 mph - N/A   Clear
9:00 PM 64 °F 54 °F 61% 30.13 in 12 mi NE 6.7 mph - -  
9:00 PM 64.4 °F 53.6 °F 68% 30.12 in - ENE 6.9 mph - N/A   Clear
9:30 PM 64.4 °F 53.6 °F 68% 30.12 in - NNE 3.5 mph - N/A   Clear
10:00 PM 63 °F 53 °F 60% 30.14 in 12 mi NNE 2.2 mph - -  
10:00 PM 62.6 °F 53.6 °F 72% 30.12 in - NNE 2.3 mph - N/A   Clear
10:30 PM 62.6 °F 53.6 °F 72% 30.15 in - NNE 1.2 mph - N/A   Clear
11:00 PM 60.8 °F 51.8 °F 72% 30.15 in - NNE 2.3 mph - N/A   Clear
11:30 PM 59.0 °F 51.8 °F 77% 30.15 in - NE 4.6 mph - N/A   Clear